Weather History for Pine Bluff, AR

Change the Weather History Date:

Monday, December 31, 2012

  Actual Average Record
Temperature  
Mean Temperature 42 °F 42 °F  
Max Temperature 47 °F 51 °F 80 °F (1951)
Min Temperature 36 °F 33 °F 3 °F (1983)
Degree Days  
Heating Degree Days 23 23  
Month to date heating degree days 480 650  
Since 1 July heating degree days 1064 1153  
Cooling Degree Days 0 0  
Month to date cooling degree days 6 1  
Year to date cooling degree days 2389 2132  
Moisture  
Dew Point 39 °F    
Average Humidity 85    
Maximum Humidity 100    
Minimum Humidity 70    
Precipitation  
Precipitation 0.25 in 0.14 in 1.98 in (1932)
Month to date precipitation 5.19 5.44  
Year to date precipitation 45.69 51.15  
Snow  
Snow 0.00 in 0.00 in 1.00 in (1905)
Month to date snowfall 2.0 0.2  
Since 1 July snowfall 2.0 0.2  
Snow Depth 0.00 in    
Sea Level Pressure  
Sea Level Pressure 30.12 in    
Wind  
Wind Speed 7 mph (East)    
Max Wind Speed 23 mph    
Max Gust Speed 28 mph    
Visibility 6 miles    
Events Rain    
T = Trace of Precipitation, MM = Missing Value Source: NWS Daily Summary

Daily Weather History Graph

Daily Weather History Graph

Search for Another Location

Airport:

Trip Planner

Search our weather history database for the weather conditions in past years. The results will help you decide how hot, cold, wet, or windy it might be!

Date:

Astronomy

Dec. 31, 2012 Rise Set
Actual Time 7:13 AM CST 5:08 PM CST
Civil Twilight 6:45 AM CST 5:36 PM CST
Nautical Twilight 6:14 AM CST 6:07 PM CST
Astronomical Twilight 5:44 AM CST 6:38 PM CST
Moon 8:29 PM CST (12/31) 9:03 AM CST (12/31)
Length of Visible Light 10h 50m
Length of Day
9h 55m
Waning Gibbous, 90% of the Moon is Illuminated
Dec 31
Waning Gibbous
Jan 4
Last Quarter
Jan 11
New
Jan 18
First Quarter
Jan 26
Full

Hourly Weather History & Observations

Time (CST) Temp. Windchill Dew Point Humidity Pressure Visibility Wind Dir Wind Speed Gust Speed Precip Events Conditions
12:53 AM 37.9 °F 35.5 °F 32.0 °F 79% 30.32 in 10.0 mi SSE 3.5 mph - N/A   Mostly Cloudy
1:53 AM 37.0 °F 34.5 °F 32.0 °F 82% 30.31 in 10.0 mi SSE 3.5 mph - N/A   Clear
2:53 AM 37.9 °F 35.5 °F 30.9 °F 76% 30.31 in 10.0 mi SE 3.5 mph - N/A   Clear
3:53 AM 37.0 °F 34.5 °F 33.1 °F 86% 30.29 in 10.0 mi East 3.5 mph - N/A   Clear
4:53 AM 37.0 °F - 33.1 °F 86% 30.30 in 10.0 mi Calm Calm - N/A   Mostly Cloudy
5:53 AM 37.9 °F 34.4 °F 33.1 °F 83% 30.29 in 10.0 mi East 4.6 mph - N/A   Overcast
6:53 AM 37.9 °F 33.5 °F 34.0 °F 86% 30.28 in 10.0 mi East 5.8 mph - N/A   Overcast
7:53 AM 37.9 °F 32.1 °F 33.1 °F 83% 30.26 in 10.0 mi SE 8.1 mph - N/A   Overcast
8:53 AM 39.0 °F 34.0 °F 33.1 °F 79% 30.25 in 10.0 mi SSE 6.9 mph - N/A   Overcast
9:53 AM 41.0 °F 35.8 °F 35.1 °F 79% 30.23 in 10.0 mi ESE 8.1 mph - 0.00 in   Overcast
10:53 AM 43.0 °F 37.2 °F 34.0 °F 71% 30.21 in 10.0 mi ESE 10.4 mph - N/A   Overcast
11:53 AM 44.1 °F 40.8 °F 35.1 °F 71% 30.17 in 10.0 mi East 5.8 mph - N/A   Overcast
12:19 PM 44.6 °F 41.4 °F 35.6 °F 71% 30.15 in 10.0 mi East 5.8 mph - N/A   Overcast
12:53 PM 44.1 °F 40.8 °F 36.0 °F 73% 30.13 in 7.0 mi ESE 5.8 mph - 0.00 in Rain Light Rain
1:53 PM 42.1 °F 36.6 °F 39.0 °F 89% 30.09 in 3.0 mi ESE 9.2 mph - 0.00 in Rain Light Rain
2:01 PM 42.8 °F 37.0 °F 39.2 °F 87% 30.07 in 2.5 mi ESE 10.4 mph - 0.00 in Rain Light Rain
2:09 PM 42.8 °F 37.0 °F 39.2 °F 87% 30.07 in 4.0 mi ESE 10.4 mph - 0.00 in Rain Light Rain
2:53 PM 43.0 °F 37.7 °F 41.0 °F 93% 30.05 in 5.0 mi ESE 9.2 mph - 0.01 in Rain Light Rain
3:53 PM 44.1 °F 37.4 °F 42.1 °F 93% 30.02 in 5.0 mi SSE 13.8 mph - 0.01 in Rain Light Rain
4:53 PM 45.0 °F 38.5 °F 43.0 °F 93% 30.01 in 4.0 mi SSE 13.8 mph 18.4 mph N/A Rain Rain
5:39 PM 46.4 °F 41.5 °F 44.6 °F 93% 29.98 in 10.0 mi SSE 10.4 mph - 0.01 in Rain Light Rain
5:53 PM 46.9 °F - 46.0 °F 97% 30.05 in 4.0 mi WNW 21.9 mph 27.6 mph 0.01 in Rain Heavy Rain
5:58 PM 46.4 °F 41.1 °F 44.6 °F 93% 30.05 in 1.8 mi NW 11.5 mph 27.6 mph 0.00 in Rain Heavy Rain
6:06 PM 46.4 °F 40.4 °F 44.6 °F 93% 30.05 in 2.0 mi NW 13.8 mph - 0.01 in Rain Heavy Rain
6:08 PM 46.4 °F 40.7 °F 44.6 °F 93% 30.04 in 3.0 mi NW 12.7 mph 16.1 mph 0.01 in Rain Light Rain
6:26 PM 46.4 °F 41.5 °F 44.6 °F 93% 30.06 in 2.5 mi NNW 10.4 mph - 0.01 in Rain Rain
6:34 PM 44.6 °F 39.7 °F 44.6 °F 100% 30.06 in 4.0 mi NNW 9.2 mph - 0.01 in Rain Light Rain
6:53 PM 43.0 °F 36.8 °F 42.1 °F 97% 30.06 in 7.0 mi NNW 11.5 mph - 0.02 in Rain Rain
7:32 PM 41.0 °F 33.5 °F 39.2 °F 93% 30.07 in 6.0 mi NNW 13.8 mph - N/A Rain Light Rain
7:53 PM 41.0 °F 36.4 °F 39.9 °F 96% 30.06 in 7.0 mi North 6.9 mph - N/A Rain Light Rain
8:20 PM 41.0 °F 38.0 °F 41.0 °F 100% 30.04 in 7.0 mi ENE 4.6 mph - 0.01 in Rain Light Rain
8:44 PM 41.0 °F - 41.0 °F 100% 30.03 in 3.0 mi Calm Calm - 0.02 in Rain Light Rain
8:53 PM 41.0 °F - 41.0 °F 100% 30.04 in 6.0 mi Calm Calm - 0.02 in Rain Light Rain
9:49 PM 41.0 °F 39.0 °F 39.2 °F 93% 30.03 in 4.0 mi NNW 3.5 mph - 0.04 in Rain Light Rain
9:50 PM 41.0 °F - 39.9 °F 96% 30.03 in 4.0 mi Calm Calm - 0.04 in Rain Light Rain
10:21 PM 41.0 °F - 41.0 °F 100% 30.04 in 3.0 mi Calm Calm - 0.02 in Rain Light Rain
10:30 PM 41.0 °F - 41.0 °F 100% 30.04 in 2.5 mi Calm Calm - 0.03 in Rain Rain
10:32 PM 41.0 °F - 41.0 °F 100% 30.03 in 3.0 mi Calm Calm - 0.03 in Rain Rain
10:53 PM 42.1 °F 40.2 °F 41.0 °F 96% 30.05 in 5.0 mi NW 3.5 mph - 0.05 in Rain Light Rain
11:01 PM 42.8 °F 39.3 °F 41.0 °F 93% 30.06 in 6.0 mi WNW 5.8 mph - 0.00 in Rain Light Rain
11:53 PM 41.0 °F 37.1 °F 41.0 °F 100% 30.04 in 8.0 mi NNW 5.8 mph - 0.05 in Rain Light Rain